,,PA_Meas_PMT16A,,PR_Meas_QMR101_102,,RH_Meas_QMH101,,SR_Meas_QMS101,,TA_Meas_QMH101,,GenWind,,GenWind,
time,status,PA,status,PR,status,RH,status,SR,status,TA,status,DirAvg,status,SpdAvg,
2011-10-10, 00:00:04,VALID,919.666,VALID,0,VALID,92.2738,VALID,0,VALID,19.9743,VALID,24,VALID,1.11602,
2011-10-10, 00:01:04,VALID,919.642,VALID,0,VALID,92.4492,VALID,0,VALID,20.0733,VALID,24,VALID,1.64883,
2011-10-10, 00:02:04,VALID,919.626,VALID,0,VALID,92.4873,VALID,0,VALID,20.1513,VALID,24,VALID,1.05078,
2011-10-10, 00:03:04,VALID,919.572,VALID,0,VALID,92.4873,VALID,0,VALID,20.1513,VALID,24,VALID,1.05,
2011-10-10, 00:04:04,VALID,919.565,VALID,0,VALID,92.533,VALID,0,VALID,20.1318,VALID,24,VALID,1.05391,
2011-10-10, 00:05:04,VALID,919.559,VALID,0,VALID,92.6321,VALID,0,VALID,20.1318,VALID,24,VALID,1.06328,
2011-10-10, 00:06:04,VALID,919.605,VALID,0,VALID,92.7617,VALID,0,VALID,20.0928,VALID,24,VALID,0.979688,
2011-10-10, 00:07:04,VALID,919.557,VALID,0,VALID,92.8913,VALID,0,VALID,20.0718,VALID,24,VALID,1.04531,
2011-10-10, 00:08:04,VALID,919.568,VALID,0,VALID,92.9371,VALID,0,VALID,20.0733,VALID,24,VALID,0.69375,
2011-10-10, 00:09:04,VALID,919.555,VALID,0,VALID,93.059,VALID,0,VALID,20.0523,VALID,24,VALID,0.600391,
2011-10-10, 00:10:04,VALID,919.534,VALID,0,VALID,93.1505,VALID,0,VALID,20.0523,VALID,24,VALID,0.649219,
2011-10-10, 00:11:04,VALID,919.545,VALID,0,VALID,93.1886,VALID,0,VALID,20.0328,VALID,24,VALID,0.709766,
2011-10-10, 00:12:04,VALID,919.53,VALID,0,VALID,93.2496,VALID,0,VALID,20.0523,VALID,24,VALID,0.489062,
2011-10-10, 00:13:04,VALID,919.544,VALID,0,VALID,93.3716,VALID,0,VALID,20.0538,VALID,24,VALID,0.715234,
2011-10-10, 00:14:04,VALID,919.529,VALID,0,VALID,93.4783,VALID,0,VALID,20.0523,VALID,24,VALID,0.513281,
2011-10-10, 00:15:04,VALID,919.569,VALID,0,VALID,93.4936,VALID,0,VALID,20.0718,VALID,24,VALID,0.241406,
2011-10-10, 00:16:04,VALID,919.55,VALID,0,VALID,93.4097,VALID,0,VALID,20.0523,VALID,24,VALID,0.252344,
2011-10-10, 00:17:04,VALID,919.533,VALID,0,VALID,93.4478,VALID,0,VALID,20.0733,VALID,24,VALID,0.904688,
2011-10-10, 00:18:04,VALID,919.538,VALID,0,VALID,93.5546,VALID,0,VALID,20.0328,VALID,24,VALID,0.2875,
2011-10-10, 00:19:04,VALID,919.5,VALID,0,VALID,93.5088,VALID,0,VALID,20.0523,VALID,24,VALID,0.348828,
2011-10-10, 00:20:04,VALID,919.481,VALID,0,VALID,93.5469,VALID,0,VALID,20.0928,VALID,24,VALID,0.410547,
2011-10-10, 00:21:04,VALID,919.471,VALID,0,VALID,93.5241,VALID,0,VALID,20.0718,VALID,24,VALID,1.025,
2011-10-10, 00:22:04,VALID,919.459,VALID,0,VALID,93.4478,VALID,0,VALID,20.0328,VALID,24,VALID,0.909375,
2011-10-10, 00:23:04,VALID,919.442,VALID,0,VALID,93.4631,VALID,0,VALID,20.0343,VALID,28,VALID,1.6207,
2011-10-10, 00:24:04,VALID,919.464,VALID,0,VALID,93.4631,VALID,0,VALID,20.0343,VALID,38,VALID,0.686719,
2011-10-10, 00:25:04,VALID,919.469,VALID,0,VALID,93.364,VALID,0,VALID,20.0133,VALID,38,VALID,0.457422,
2011-10-10, 00:26:04,VALID,919.466,VALID,0,VALID,93.303,VALID,0,VALID,20.0133,VALID,38,VALID,0.839063,
2011-10-10, 00:27:04,VALID,919.451,VALID,0,VALID,93.2191,VALID,0,VALID,20.0328,VALID,12,VALID,1.09531,
2011-10-10, 00:28:04,VALID,919.431,VALID,0,VALID,93.059,VALID,0,VALID,20.0523,VALID,12,VALID,0.891016,
2011-10-10, 00:29:04,VALID,919.396,VALID,0,VALID,92.8913,VALID,0,VALID,20.0733,VALID,11,VALID,1.03086,
2011-10-10, 00:30:04,VALID,919.368,VALID,0,VALID,92.8303,VALID,0,VALID,20.0523,VALID,12,VALID,0.957031,
2011-10-10, 00:31:04,VALID,919.321,VALID,0,VALID,92.7846,VALID,0,VALID,20.0538,VALID,12,VALID,0.832031,
2011-10-10, 00:32:04,VALID,919.334,VALID,0,VALID,92.838,VALID,0,VALID,20.0343,VALID,12,VALID,0.803125,
2011-10-10, 00:33:04,VALID,919.337,VALID,0,VALID,92.7922,VALID,0,VALID,20.0148,VALID,12,VALID,1.44336,
2011-10-10, 00:34:04,VALID,919.335,VALID,0,VALID,92.716,VALID,0.107441,VALID,20.0133,VALID,6,VALID,0.785156,
2011-10-10, 00:35:04,VALID,919.32,VALID,0,VALID,92.6093,VALID,0,VALID,20.0133,VALID,6,VALID,0.569922,
2011-10-10, 00:36:04,VALID,919.302,VALID,0,VALID,92.5788,VALID,0,VALID,20.0328,VALID,6,VALID,0.486719,
2011-10-10, 00:37:04,VALID,919.296,VALID,0,VALID,92.5635,VALID,0,VALID,20.0328,VALID,6,VALID,0.586719,
2011-10-10, 00:38:04,VALID,919.28,VALID,0,VALID,92.5178,VALID,0,VALID,20.0343,VALID,6,VALID,0.570313,
2011-10-10, 00:39:04,VALID,919.251,VALID,0,VALID,92.4568,VALID,0,VALID,20.0133,VALID,6,VALID,0.567578,
2011-10-10, 00:40:04,VALID,919.224,VALID,0,VALID,92.4492,VALID,0,VALID,20.0133,VALID,6,VALID,0.298438,
2011-10-10, 00:41:04,VALID,919.209,VALID,0,VALID,92.4949,VALID,0,VALID,19.9938,VALID,6,VALID,0,
2011-10-10, 00:42:04,VALID,919.196,VALID,0,VALID,92.5254,VALID,0,VALID,20.0148,VALID,6,VALID,0.573438,
2011-10-10, 00:43:04,VALID,919.193,VALID,0,VALID,92.5635,VALID,0,VALID,19.9938,VALID,6,VALID,0.269922,
2011-10-10, 00:44:04,VALID,919.189,VALID,0,VALID,92.3882,VALID,0,VALID,20.0148,VALID,6,VALID,0.112891,
2011-10-10, 00:45:04,VALID,919.19,VALID,0,VALID,92.5025,VALID,0,VALID,19.9953,VALID,6,VALID,0.177734,
2011-10-10, 00:46:04,VALID,919.182,VALID,0,VALID,92.6016,VALID,0,VALID,19.9758,VALID,6,VALID,0.03125,
2011-10-10, 00:47:04,VALID,919.188,VALID,0,VALID,92.7236,VALID,0,VALID,19.9758,VALID,6,VALID,0.169141,
2011-10-10, 00:48:04,VALID,919.189,VALID,0,VALID,92.4644,VALID,0,VALID,19.9353,VALID,6,VALID,0.286328,
2011-10-10, 00:49:04,VALID,919.182,VALID,0,VALID,92.4568,VALID,0,VALID,19.9368,VALID,6,VALID,0.463281,
2011-10-10, 00:50:04,VALID,919.136,VALID,0,VALID,92.472,VALID,0,VALID,19.9158,VALID,6,VALID,0.417969,
2011-10-10, 00:51:04,VALID,919.138,VALID,0,VALID,92.3348,VALID,0,VALID,19.8378,VALID,6,VALID,0.670703,
2011-10-10, 00:52:04,VALID,919.077,VALID,0,VALID,92.5483,VALID,0,VALID,19.8003,VALID,17,VALID,1.18945,
2011-10-10, 00:53:04,VALID,919.068,VALID,0,VALID,92.6855,VALID,0,VALID,19.7403,VALID,17,VALID,0.939062,
2011-10-10, 00:54:04,VALID,919.057,VALID,0,VALID,92.9523,VALID,0,VALID,19.7613,VALID,17,VALID,1.12969,
2011-10-10, 00:55:04,VALID,919.035,VALID,0,VALID,92.9142,VALID,0,VALID,19.7208,VALID,17,VALID,0.576563,
2011-10-10, 00:56:04,VALID,919.038,VALID,0,VALID,92.9599,VALID,0,VALID,19.7028,VALID,17,VALID,0.398047,
2011-10-10, 00:57:04,VALID,919.024,VALID,0,VALID,93.2268,VALID,0,VALID,19.6623,VALID,17,VALID,0.496484,
2011-10-10, 00:58:04,VALID,919.007,VALID,0,VALID,93.2496,VALID,0,VALID,19.6833,VALID,17,VALID,0.931641,
2011-10-10, 00:59:04,VALID,918.954,VALID,0,VALID,93.2954,VALID,0,VALID,19.6623,VALID,17,VALID,0.7625,
2011-10-10, 01:00:04,VALID,918.928,VALID,0,VALID,93.3335,VALID,0.107441,VALID,19.6233,VALID,17,VALID,0.633984,
2011-10-10, 01:01:04,VALID,918.864,VALID,0,VALID,93.364,VALID,0,VALID,19.5843,VALID,17,VALID,0.713281,
2011-10-10, 01:02:04,VALID,918.864,VALID,0,VALID,93.5317,VALID,0.107441,VALID,19.5843,VALID,17,VALID,0.996875,
2011-10-10, 01:03:04,VALID,918.842,VALID,0,VALID,93.5622,VALID,0,VALID,19.6053,VALID,17,VALID,0.840234,
2011-10-10, 01:04:04,VALID,918.819,VALID,0,VALID,93.5164,VALID,0,VALID,19.5648,VALID,17,VALID,0.831641,
2011-10-10, 01:05:04,VALID,918.812,VALID,0,VALID,93.6994,VALID,0,VALID,19.5663,VALID,19,VALID,1.26016,
2011-10-10, 01:06:04,VALID,918.762,VALID,0,VALID,93.646,VALID,0,VALID,19.5858,VALID,25,VALID,1.1918,
2011-10-10, 01:07:04,VALID,918.741,VALID,0,VALID,93.5164,VALID,0,VALID,19.6233,VALID,26,VALID,1.03047,
2011-10-10, 01:08:04,VALID,918.772,VALID,0,VALID,93.2191,VALID,0,VALID,19.6833,VALID,26,VALID,0.883203,
2011-10-10, 01:09:04,VALID,918.745,VALID,0,VALID,93.1429,VALID,0,VALID,19.6623,VALID,26,VALID,1.02461,
2011-10-10, 01:10:04,VALID,918.725,VALID,0,VALID,93.2801,VALID,0,VALID,19.6818,VALID,26,VALID,1.02344,
2011-10-10, 01:11:04,VALID,918.736,VALID,0,VALID,93.3716,VALID,0,VALID,19.7223,VALID,26,VALID,0.959766,
2011-10-10, 01:12:04,VALID,918.725,VALID,0,VALID,93.2801,VALID,0,VALID,19.7223,VALID,26,VALID,1.05039,
2011-10-10, 01:13:04,VALID,918.705,VALID,0,VALID,93.3106,VALID,0,VALID,19.7028,VALID,26,VALID,1.25508,
2011-10-10, 01:14:04,VALID,918.718,VALID,0,VALID,93.4173,VALID,0,VALID,19.6638,VALID,26,VALID,1.08203,
2011-10-10, 01:15:04,VALID,918.711,VALID,0,VALID,93.4555,VALID,0,VALID,19.6428,VALID,26,VALID,0.675,
2011-10-10, 01:16:04,VALID,918.689,VALID,0,VALID,93.6308,VALID,0.107441,VALID,19.6233,VALID,26,VALID,0.6,
2011-10-10, 01:17:04,VALID,918.689,VALID,0,VALID,93.6003,VALID,0.107441,VALID,19.6428,VALID,26,VALID,0.261719,
2011-10-10, 01:18:04,VALID,918.675,VALID,0,VALID,93.6613,VALID,0,VALID,19.6428,VALID,26,VALID,0.488281,
2011-10-10, 01:19:04,VALID,918.652,VALID,0,VALID,93.7833,VALID,0,VALID,19.6638,VALID,26,VALID,0.424609,
2011-10-10, 01:20:04,VALID,918.625,VALID,0,VALID,93.8747,VALID,0.107441,VALID,19.6428,VALID,26,VALID,0.685156,
2011-10-10, 01:21:04,VALID,918.607,VALID,0,VALID,93.7909,VALID,0,VALID,19.6623,VALID,26,VALID,0.662109,
2011-10-10, 01:22:04,VALID,918.595,VALID,0,VALID,93.7985,VALID,0,VALID,19.6428,VALID,26,VALID,0.457812,
2011-10-10, 01:23:04,VALID,918.6,VALID,0,VALID,93.8366,VALID,0,VALID,19.6428,VALID,26,VALID,0.642187,
2011-10-10, 01:24:04,VALID,918.567,VALID,0,VALID,93.7985,VALID,0,VALID,19.6428,VALID,26,VALID,0.383594,
2011-10-10, 01:25:04,VALID,918.587,VALID,0,VALID,93.7223,VALID,0,VALID,19.6638,VALID,26,VALID,0.711719,
2011-10-10, 01:26:04,VALID,918.547,VALID,0,VALID,93.6079,VALID,0,VALID,19.6638,VALID,26,VALID,0.988672,
2011-10-10, 01:27:04,VALID,918.531,VALID,0,VALID,93.3411,VALID,0,VALID,19.6443,VALID,26,VALID,1.22422,
2011-10-10, 01:28:04,VALID,918.519,VALID,0,VALID,93.5469,VALID,0.107441,VALID,19.5843,VALID,25,VALID,1.14609,
2011-10-10, 01:29:04,VALID,918.513,VALID,0,VALID,93.7223,VALID,0,VALID,19.6053,VALID,25,VALID,1.05,
2011-10-10, 01:30:04,VALID,918.509,VALID,0,VALID,93.7147,VALID,0,VALID,19.6053,VALID,25,VALID,0.606641,
2011-10-10, 01:31:04,VALID,918.485,VALID,0,VALID,93.6003,VALID,0,VALID,19.6233,VALID,25,VALID,0.726563,
2011-10-10, 01:32:04,VALID,918.494,VALID,0,VALID,93.3259,VALID,0,VALID,19.6428,VALID,25,VALID,0.779297,
2011-10-10, 01:33:04,VALID,918.455,VALID,0,VALID,93.0438,VALID,0,VALID,19.6443,VALID,25,VALID,0.300781,
2011-10-10, 01:34:04,VALID,918.437,VALID,0,VALID,93.2191,VALID,0,VALID,19.6233,VALID,25,VALID,0.411328,
2011-10-10, 01:35:04,VALID,918.426,VALID,0,VALID,93.3411,VALID,0,VALID,19.6428,VALID,25,VALID,0.641406,
2011-10-10, 01:36:04,VALID,918.4,VALID,0,VALID,93.242,VALID,0,VALID,19.6638,VALID,359,VALID,1.11367,
2011-10-10, 01:37:04,VALID,918.364,VALID,0,VALID,93.0743,VALID,0,VALID,19.7028,VALID,12,VALID,0.571094,
2011-10-10, 01:38:04,VALID,918.343,VALID,0,VALID,92.9218,VALID,0,VALID,19.7418,VALID,12,VALID,0.277734,
2011-10-10, 01:39:04,VALID,918.316,VALID,0,VALID,92.7465,VALID,0,VALID,19.7613,VALID,11,VALID,0.216016,
2011-10-10, 01:40:04,VALID,918.288,VALID,0,VALID,92.6397,VALID,0,VALID,19.8018,VALID,12,VALID,0.555078,
2011-10-10, 01:41:04,VALID,918.26,VALID,0,VALID,92.6245,VALID,0,VALID,19.8003,VALID,12,VALID,0.402734,
2011-10-10, 01:42:04,VALID,918.281,VALID,0,VALID,92.7389,VALID,0,VALID,19.8003,VALID,11,VALID,0,
2011-10-10, 01:43:04,VALID,918.281,VALID,0,VALID,92.8151,VALID,0,VALID,19.7598,VALID,12,VALID,0.316797,
2011-10-10, 01:44:04,VALID,918.253,VALID,0,VALID,92.9066,VALID,0,VALID,19.7403,VALID,12,VALID,0.401953,
2011-10-10, 01:45:04,VALID,918.236,VALID,0,VALID,92.594,VALID,0,VALID,19.7028,VALID,12,VALID,0.16875,
2011-10-10, 01:46:04,VALID,918.241,VALID,0,VALID,92.8075,VALID,0,VALID,19.6833,VALID,12,VALID,0.000390625,
2011-10-10, 01:47:04,VALID,918.241,VALID,0,VALID,93.0285,VALID,0,VALID,19.6638,VALID,12,VALID,0.522266,
2011-10-10, 01:48:04,VALID,918.237,VALID,0,VALID,93.1886,VALID,0,VALID,19.6233,VALID,11,VALID,0.221484,
2011-10-10, 01:49:04,VALID,918.237,VALID,0,VALID,93.2572,VALID,0,VALID,19.6233,VALID,352,VALID,0.490234,
2011-10-10, 01:50:04,VALID,918.204,VALID,0,VALID,93.364,VALID,0,VALID,19.6638,VALID,297,VALID,0.205469,
2011-10-10, 01:51:04,VALID,918.171,VALID,0,VALID,93.4859,VALID,0,VALID,19.6233,VALID,297,VALID,0.329688,
2011-10-10, 01:52:04,VALID,918.133,VALID,0,VALID,93.5088,VALID,0,VALID,19.6443,VALID,297,VALID,0,
2011-10-10, 01:53:04,VALID,918.093,VALID,0,VALID,93.0743,VALID,0,VALID,19.6038,VALID,297,VALID,0,
2011-10-10, 01:54:04,VALID,918.086,VALID,0,VALID,92.9066,VALID,0,VALID,19.5858,VALID,297,VALID,0,
2011-10-10, 01:55:04,VALID,918.063,VALID,0,VALID,92.838,VALID,0,VALID,19.5078,VALID,297,VALID,0.429688,
2011-10-10, 01:56:04,VALID,918.076,VALID,0,VALID,93.1353,VALID,0,VALID,19.4493,VALID,298,VALID,0,
2011-10-10, 01:57:04,VALID,918.024,VALID,0,VALID,93.4097,VALID,0,VALID,19.4103,VALID,297,VALID,0.0203125,
2011-10-10, 01:58:04,VALID,917.994,VALID,0,VALID,93.6994,VALID,0,VALID,19.4298,VALID,297,VALID,0.260938,
2011-10-10, 01:59:04,VALID,917.994,VALID,0,VALID,93.8976,VALID,0,VALID,19.4103,VALID,297,VALID,0.194141,
2011-10-10, 02:00:04,VALID,917.972,VALID,0,VALID,94.0196,VALID,0,VALID,19.4298,VALID,297,VALID,0.183203,
2011-10-10, 02:01:04,VALID,917.971,VALID,0,VALID,94.0958,VALID,0,VALID,19.4298,VALID,297,VALID,0,
2011-10-10, 02:02:04,VALID,917.963,VALID,0,VALID,94.1721,VALID,0,VALID,19.4298,VALID,297,VALID,0,
2011-10-10, 02:03:04,VALID,917.945,VALID,0,VALID,94.2254,VALID,0,VALID,19.4493,VALID,297,VALID,0,
2011-10-10, 02:04:04,VALID,917.928,VALID,0,VALID,94.2254,VALID,0,VALID,19.4298,VALID,298,VALID,0,
2011-10-10, 02:05:04,VALID,917.89,VALID,0,VALID,94.1721,VALID,0,VALID,19.4493,VALID,297,VALID,0.108594,
2011-10-10, 02:06:04,VALID,917.932,VALID,0,VALID,94.2102,VALID,0,VALID,19.4493,VALID,298,VALID,0.358594,
2011-10-10, 02:07:04,VALID,917.892,VALID,0,VALID,94.2178,VALID,0,VALID,19.4493,VALID,297,VALID,0,
2011-10-10, 02:08:04,VALID,917.875,VALID,0,VALID,94.1568,VALID,0,VALID,19.4298,VALID,297,VALID,0,
2011-10-10, 02:09:04,VALID,917.855,VALID,0,VALID,94.0806,VALID,0,VALID,19.4103,VALID,297,VALID,0,
2011-10-10, 02:10:04,VALID,917.831,VALID,0,VALID,94.0577,VALID,0,VALID,19.4103,VALID,297,VALID,0,
2011-10-10, 02:11:04,VALID,917.808,VALID,0,VALID,94.012,VALID,0,VALID,19.3893,VALID,297,VALID,0,
2011-10-10, 02:12:04,VALID,917.78,VALID,0,VALID,93.9662,VALID,0,VALID,19.3908,VALID,297,VALID,0,
2011-10-10, 02:13:04,VALID,917.772,VALID,0,VALID,93.9738,VALID,0,VALID,19.3698,VALID,297,VALID,0,
2011-10-10, 02:14:04,VALID,917.79,VALID,0,VALID,93.9586,VALID,0,VALID,19.3908,VALID,297,VALID,0,
2011-10-10, 02:15:04,VALID,917.767,VALID,0,VALID,94.0196,VALID,0,VALID,19.3908,VALID,297,VALID,0,
2011-10-10, 02:16:04,VALID,917.728,VALID,0,VALID,94.1339,VALID,0,VALID,19.3908,VALID,297,VALID,0,
2011-10-10, 02:17:04,VALID,917.726,VALID,0,VALID,94.1568,VALID,0,VALID,19.4118,VALID,297,VALID,0,
2011-10-10, 02:18:04,VALID,917.699,VALID,0,VALID,94.2254,VALID,0,VALID,19.4103,VALID,297,VALID,0,
2011-10-10, 02:19:04,VALID,917.701,VALID,0,VALID,94.2178,VALID,0,VALID,19.3908,VALID,297,VALID,0,
2011-10-10, 02:20:04,VALID,917.681,VALID,0,VALID,94.073,VALID,0,VALID,19.3908,VALID,297,VALID,0,
2011-10-10, 02:21:04,VALID,917.714,VALID,0,VALID,93.9891,VALID,0,VALID,19.3713,VALID,297,VALID,0,
2011-10-10, 02:22:04,VALID,917.698,VALID,0,VALID,94.0577,VALID,0,VALID,19.3713,VALID,297,VALID,0,
2011-10-10, 02:23:04,VALID,917.721,VALID,0,VALID,94.0501,VALID,0,VALID,19.3518,VALID,297,VALID,0,
2011-10-10, 02:24:04,VALID,917.683,VALID,0,VALID,93.9815,VALID,0,VALID,19.3323,VALID,297,VALID,0,
2011-10-10, 02:25:04,VALID,917.644,VALID,0,VALID,94.1949,VALID,0,VALID,19.3323,VALID,297,VALID,0.192188,
2011-10-10, 02:26:04,VALID,917.651,VALID,0,VALID,94.355,VALID,0,VALID,19.3323,VALID,298,VALID,0.447656,
2011-10-10, 02:27:04,VALID,917.66,VALID,0,VALID,94.4541,VALID,0,VALID,19.3323,VALID,297,VALID,0.301562,
2011-10-10, 02:28:04,VALID,917.629,VALID,0,VALID,94.4617,VALID,0,VALID,19.3338,VALID,297,VALID,0,
2011-10-10, 02:29:04,VALID,917.68,VALID,0,VALID,94.3474,VALID,0,VALID,19.2933,VALID,297,VALID,0.0585938,
2011-10-10, 02:30:04,VALID,917.61,VALID,0,VALID,94.416,VALID,0,VALID,19.2933,VALID,297,VALID,0.598828,
2011-10-10, 02:31:04,VALID,917.613,VALID,0,VALID,94.355,VALID,0,VALID,19.2738,VALID,297,VALID,0.767187,
2011-10-10, 02:32:04,VALID,917.599,VALID,0,VALID,94.294,VALID,0,VALID,19.2153,VALID,297,VALID,0.941406,
2011-10-10, 02:33:04,VALID,917.6,VALID,0,VALID,94.4617,VALID,0,VALID,19.1763,VALID,297,VALID,0.957031,
2011-10-10, 02:34:04,VALID,917.608,VALID,0,VALID,94.6447,VALID,0,VALID,19.1373,VALID,297,VALID,0.766016,
2011-10-10, 02:35:04,VALID,917.597,VALID,0,VALID,94.7743,VALID,0,VALID,19.0788,VALID,298,VALID,0.697656,
2011-10-10, 02:36:04,VALID,917.599,VALID,0,VALID,94.9801,VALID,0,VALID,19.0398,VALID,297,VALID,0.796094,
2011-10-10, 02:37:04,VALID,917.582,VALID,0,VALID,95.1783,VALID,0,VALID,19.0008,VALID,298,VALID,0.571094,
2011-10-10, 02:38:04,VALID,917.591,VALID,0,VALID,95.2775,VALID,0,VALID,18.9814,VALID,298,VALID,0.496094,
2011-10-10, 02:39:04,VALID,917.569,VALID,0,VALID,95.4985,VALID,0,VALID,18.9619,VALID,298,VALID,0.675,
2011-10-10, 02:40:04,VALID,917.545,VALID,0,VALID,95.6434,VALID,0,VALID,18.9619,VALID,297,VALID,0.622266,
2011-10-10, 02:41:04,VALID,917.55,VALID,0,VALID,95.7654,VALID,0,VALID,18.9619,VALID,304,VALID,0.719141,
2011-10-10, 02:42:04,VALID,917.516,VALID,0,VALID,95.8873,VALID,0,VALID,19.0008,VALID,77,VALID,0.923437,
2011-10-10, 02:43:04,VALID,917.531,VALID,0,VALID,95.9712,VALID,0,VALID,19.0203,VALID,77,VALID,0.710938,
2011-10-10, 02:44:04,VALID,917.541,VALID,0,VALID,95.9864,VALID,0,VALID,19.0203,VALID,77,VALID,0.56875,
2011-10-10, 02:45:04,VALID,917.532,VALID,0,VALID,95.9941,VALID,0,VALID,19.0593,VALID,77,VALID,0.598828,
2011-10-10, 02:46:04,VALID,917.523,VALID,0,VALID,95.9178,VALID,0,VALID,19.0398,VALID,77,VALID,0.550391,
2011-10-10, 02:47:04,VALID,917.516,VALID,0,VALID,95.9026,VALID,0,VALID,19.0608,VALID,77,VALID,0.6625,
2011-10-10, 02:48:04,VALID,917.505,VALID,0,VALID,95.9407,VALID,0,VALID,19.0593,VALID,77,VALID,0.677344,
2011-10-10, 02:49:04,VALID,917.478,VALID,0,VALID,95.9102,VALID,0,VALID,19.0608,VALID,77,VALID,0.546484,
2011-10-10, 02:50:04,VALID,917.49,VALID,0,VALID,95.8263,VALID,0,VALID,19.0593,VALID,77,VALID,0.533203,
2011-10-10, 02:51:04,VALID,917.504,VALID,0,VALID,95.8492,VALID,0,VALID,19.0593,VALID,77,VALID,0.646875,
2011-10-10, 02:52:04,VALID,917.503,VALID,0,VALID,95.8873,VALID,0,VALID,19.0998,VALID,77,VALID,0.712891,
2011-10-10, 02:53:04,VALID,917.503,VALID,0,VALID,95.8797,VALID,0,VALID,19.0788,VALID,77,VALID,0.740234,
2011-10-10, 02:54:04,VALID,917.503,VALID,0,VALID,95.8568,VALID,0,VALID,19.0983,VALID,77,VALID,0.859375,
2011-10-10, 02:55:04,VALID,917.482,VALID,0,VALID,95.8111,VALID,0,VALID,19.0983,VALID,77,VALID,0.728125,
2011-10-10, 02:56:04,VALID,917.483,VALID,0,VALID,95.8416,VALID,0,VALID,19.0983,VALID,77,VALID,1.02461,
2011-10-10, 02:57:04,VALID,917.486,VALID,0,VALID,95.8416,VALID,0,VALID,19.0983,VALID,77,VALID,0.897266,
2011-10-10, 02:58:04,VALID,917.528,VALID,0,VALID,95.8492,VALID,0,VALID,19.0983,VALID,77,VALID,0.875,
2011-10-10, 02:59:04,VALID,917.505,VALID,0,VALID,95.8568,VALID,0,VALID,19.0983,VALID,77,VALID,0.832422,
2011-10-10, 03:00:04,VALID,917.497,VALID,0,VALID,95.8263,VALID,0,VALID,19.1178,VALID,77,VALID,0.859375,
2011-10-10, 03:01:04,VALID,917.492,VALID,0,VALID,95.7577,VALID,0.107441,VALID,19.1373,VALID,76,VALID,0.808203,
2011-10-10, 03:02:04,VALID,917.513,VALID,0,VALID,95.5062,VALID,0,VALID,19.0983,VALID,77,VALID,0.556641,
2011-10-10, 03:03:04,VALID,917.461,VALID,0,VALID,95.2698,VALID,0,VALID,19.0398,VALID,77,VALID,0.6625,
2011-10-10, 03:04:04,VALID,917.494,VALID,0,VALID,95.3994,VALID,0,VALID,19.0788,VALID,77,VALID,0.812891,
2011-10-10, 03:05:04,VALID,917.476,VALID,0,VALID,95.468,VALID,0,VALID,19.0788,VALID,77,VALID,0.743359,
2011-10-10, 03:06:04,VALID,917.485,VALID,0,VALID,95.3156,VALID,0,VALID,19.0593,VALID,77,VALID,0.676562,
2011-10-10, 03:07:04,VALID,917.494,VALID,0,VALID,95.1479,VALID,0.107441,VALID,19.0398,VALID,77,VALID,0.478125,
2011-10-10, 03:08:04,VALID,917.494,VALID,0,VALID,95.0792,VALID,0,VALID,19.0008,VALID,77,VALID,0.621094,
2011-10-10, 03:09:04,VALID,917.509,VALID,0,VALID,94.8887,VALID,0,VALID,18.9424,VALID,77,VALID,0.645703,
2011-10-10, 03:10:04,VALID,917.51,VALID,0,VALID,95.125,VALID,0,VALID,18.9424,VALID,77,VALID,0.728516,
2011-10-10, 03:11:04,VALID,917.535,VALID,0,VALID,95.3384,VALID,0,VALID,18.9424,VALID,76,VALID,0.75,
2011-10-10, 03:12:04,VALID,917.542,VALID,0,VALID,95.4757,VALID,0,VALID,18.9619,VALID,77,VALID,0.803516,
2011-10-10, 03:13:04,VALID,917.525,VALID,0,VALID,95.5671,VALID,0,VALID,18.9814,VALID,76,VALID,0.907031,
2011-10-10, 03:14:04,VALID,917.53,VALID,0,VALID,95.4833,VALID,0,VALID,19.0008,VALID,77,VALID,0.730469,
2011-10-10, 03:15:04,VALID,917.526,VALID,0,VALID,95.4757,VALID,0,VALID,19.0413,VALID,76,VALID,0.798437,
2011-10-10, 03:16:04,VALID,917.556,VALID,0,VALID,95.5367,VALID,0,VALID,19.0593,VALID,76,VALID,0.721094,
2011-10-10, 03:17:04,VALID,917.501,VALID,0,VALID,95.3994,VALID,0,VALID,19.0593,VALID,77,VALID,0.613672,
2011-10-10, 03:18:04,VALID,917.532,VALID,0,VALID,95.3613,VALID,0,VALID,19.0998,VALID,77,VALID,0.725391,
2011-10-10, 03:19:04,VALID,917.539,VALID,0,VALID,95.1936,VALID,0,VALID,19.0983,VALID,76,VALID,1.08008,
2011-10-10, 03:20:04,VALID,917.533,VALID,0,VALID,94.942,VALID,0,VALID,19.0788,VALID,76,VALID,1.14844,
2011-10-10, 03:21:04,VALID,917.55,VALID,0,VALID,94.9039,VALID,0,VALID,19.1373,VALID,52,VALID,0.953906,
2011-10-10, 03:22:04,VALID,917.56,VALID,0,VALID,94.6447,VALID,0,VALID,19.1373,VALID,52,VALID,0.868359,
2011-10-10, 03:23:04,VALID,917.569,VALID,0,VALID,94.4541,VALID,0,VALID,19.1568,VALID,51,VALID,1.09648,
2011-10-10, 03:24:04,VALID,917.566,VALID,0,VALID,94.1873,VALID,0,VALID,19.1973,VALID,31,VALID,0.998828,
2011-10-10, 03:25:04,VALID,917.543,VALID,0,VALID,94.073,VALID,0,VALID,19.1958,VALID,31,VALID,1.02578,
2011-10-10, 03:26:04,VALID,917.558,VALID,0,VALID,93.9738,VALID,0,VALID,19.1763,VALID,31,VALID,0.827734,
2011-10-10, 03:27:04,VALID,917.562,VALID,0,VALID,94.073,VALID,0,VALID,19.1763,VALID,31,VALID,0.662891,
2011-10-10, 03:28:04,VALID,917.562,VALID,0,VALID,94.1492,VALID,0,VALID,19.1958,VALID,31,VALID,0.515625,
2011-10-10, 03:29:04,VALID,917.59,VALID,0,VALID,94.0577,VALID,0,VALID,19.1958,VALID,31,VALID,0.53125,
2011-10-10, 03:30:04,VALID,917.587,VALID,0,VALID,94.0806,VALID,0,VALID,19.2168,VALID,31,VALID,0.900781,
2011-10-10, 03:31:04,VALID,917.559,VALID,0,VALID,93.9738,VALID,0,VALID,19.1958,VALID,31,VALID,0.885938,
2011-10-10, 03:32:04,VALID,917.559,VALID,0,VALID,94.0348,VALID,0,VALID,19.1958,VALID,31,VALID,1.17734,
2011-10-10, 03:33:04,VALID,917.546,VALID,0,VALID,93.9205,VALID,0,VALID,19.2348,VALID,31,VALID,0.994922,
2011-10-10, 03:34:04,VALID,917.539,VALID,0,VALID,93.768,VALID,0,VALID,19.2948,VALID,31,VALID,1.27813,
2011-10-10, 03:35:04,VALID,917.519,VALID,0,VALID,93.707,VALID,0,VALID,19.3323,VALID,31,VALID,1.72969,
2011-10-10, 03:36:04,VALID,917.52,VALID,0,VALID,93.4631,VALID,0,VALID,19.3923,VALID,31,VALID,1.24961,
2011-10-10, 03:37:04,VALID,917.521,VALID,0,VALID,93.3487,VALID,0,VALID,19.4103,VALID,31,VALID,1.21367,
2011-10-10, 03:38:04,VALID,917.536,VALID,0,VALID,93.2191,VALID,0,VALID,19.4103,VALID,31,VALID,0.716406,
2011-10-10, 03:39:04,VALID,917.532,VALID,0,VALID,93.0667,VALID,0,VALID,19.4118,VALID,31,VALID,0.706641,
2011-10-10, 03:40:04,VALID,917.529,VALID,0,VALID,93.1658,VALID,0,VALID,19.3923,VALID,31,VALID,1.00039,
2011-10-10, 03:41:04,VALID,917.508,VALID,0,VALID,93.2954,VALID,0,VALID,19.4118,VALID,31,VALID,0.979688,
2011-10-10, 03:42:04,VALID,917.541,VALID,0,VALID,93.1886,VALID,0,VALID,19.3908,VALID,31,VALID,0.987109,
2011-10-10, 03:43:04,VALID,917.482,VALID,0,VALID,93.2572,VALID,0,VALID,19.3713,VALID,31,VALID,1.18555,
2011-10-10, 03:44:04,VALID,917.509,VALID,0,VALID,93.3868,VALID,0,VALID,19.4118,VALID,31,VALID,1.0832,
2011-10-10, 03:45:04,VALID,917.488,VALID,0,VALID,93.5317,VALID,0,VALID,19.3908,VALID,10,VALID,1.93203,
2011-10-10, 03:46:04,VALID,917.486,VALID,0,VALID,93.4631,VALID,0,VALID,19.4508,VALID,10,VALID,1.23867,
2011-10-10, 03:47:04,VALID,917.506,VALID,0,VALID,93.4478,VALID,0,VALID,19.4313,VALID,4,VALID,1.30859,
2011-10-10, 03:48:04,VALID,917.517,VALID,0,VALID,93.6003,VALID,0,VALID,19.4298,VALID,7,VALID,1.4793,